Station NIAN6 - 9063012 - Niagara Intake, NY Image indicating link to RSS feed of recent meteorological observations for station NIAN6


Conditions at NIAN6 as of
(6:30 am EDT)
1030 GMT on 06/23/2024:
     

Click on the graph icon in the table below to see a time series plot of the last five days of that observation.

5-day plot - Atmospheric Pressure Atmospheric Pressure (PRES):29.62 in
5-day plot - Air Temperature Air Temperature (ATMP): 80.1 °F
NOS Water Level Observation Network Water Level
Previous observations
TIME
(EDT)
5-day plot - Wind Direction
WDIR
 
5-day plot - Wind Speed
WSPD
kts
5-day plot - Wind Gust
GST
kts
5-day plot - Wave Height
WVHT
ft
5-day plot - Dominant Wave Period
DPD
sec
5-day plot - Average Wave Period
APD
sec
5-day plot - Mean Wave Direction
MWD
 
5-day plot - Atmospheric Pressure
PRES
in
5-day plot - Pressure Tendency
PTDY
in
5-day plot - Air Temperature
ATMP
°F
5-day plot - Water Temperature
WTMP
°F
5-day plot - Dew Point
DEWP
°F
5-day plot - Salinity
SAL
psu
5-day plot - Visibility
VIS
nmi
5-day plot - Tide (above MLLW)
TIDE
ft
2024-06-23 06:24 am-------29.62- 80.4-----
2024-06-23 06:18 am-------29.62- 80.2-----
2024-06-23 06:12 am-------29.62- 79.9-----
2024-06-23 06:06 am-------29.62- 79.9-----
2024-06-23 06:00 am-------29.62-0.06------
2024-06-23 05:54 am-------29.63-------
2024-06-23 05:48 am-------29.63- 79.9-----
2024-06-23 05:42 am-------29.63- 79.7-----
2024-06-23 05:36 am-------29.63- 79.7-----
2024-06-23 05:30 am-------29.64- 80.1-----
2024-06-23 05:24 am-------29.64- 79.9-----
2024-06-23 05:18 am-------29.64- 79.9-----
2024-06-23 05:12 am-------29.64- 79.5-----
2024-06-23 05:06 am-------29.64- 79.9-----
2024-06-23 05:00 am-------29.65- 80.1-----
2024-06-23 04:54 am-------29.65- 80.1-----
2024-06-23 04:48 am-------29.65- 80.2-----
2024-06-23 04:42 am-------29.65- 80.4-----
2024-06-23 04:36 am-------29.66- 80.2-----
2024-06-23 04:30 am-------29.66- 80.4-----
2024-06-23 04:24 am-------29.66- 80.2-----
2024-06-23 04:18 am-------29.66- 80.6-----
2024-06-23 04:12 am-------29.66- 80.6-----
2024-06-23 04:06 am-------29.67- 80.6-----
2024-06-23 04:00 am-------29.67-0.08 80.4-----
2024-06-23 03:54 am-------29.67- 80.2-----
2024-06-23 03:48 am-------29.67- 80.2-----
2024-06-23 03:42 am-------29.68- 79.9-----
2024-06-23 03:36 am-------29.68- 79.9-----
2024-06-23 03:30 am-------29.68- 79.3-----
2024-06-23 03:24 am-------29.68- 79.3-----
2024-06-23 03:18 am-------29.68- 77.7-----
2024-06-23 03:12 am-------29.68- 76.6-----
2024-06-23 03:06 am-------29.69- 75.2-----
2024-06-23 03:00 am-------29.69-0.08 74.5-----
2024-06-23 02:54 am-------29.70- 73.9-----
2024-06-23 02:48 am-------29.70- 73.6-----
2024-06-23 02:42 am-------29.70- 73.8-----
2024-06-23 02:36 am-------29.70- 73.8-----
2024-06-23 02:30 am-------29.71- 73.6-----
2024-06-23 02:24 am-------29.71- 73.6-----
2024-06-23 02:18 am-------29.71- 73.6-----
2024-06-23 02:12 am-------29.72- 73.6-----
2024-06-23 02:06 am-------29.72- 74.1-----
2024-06-23 02:00 am--------- 75.4-----
2024-06-23 01:54 am--------- 77.9-----
2024-06-23 01:48 am-------29.73- 77.9-----
2024-06-23 01:42 am-------29.72- 78.6-----
2024-06-23 01:36 am-------29.72- 78.6-----
2024-06-23 01:30 am-------29.72-------
2024-06-23 01:24 am-------29.73-------
2024-06-23 01:18 am-------29.73- 78.4-----
2024-06-23 01:12 am-------29.74- 78.3-----
2024-06-23 01:06 am-------29.74- 78.4-----
2024-06-23 01:00 am-------29.75-0.07 78.3-----
2024-06-23 12:54 am-------29.75- 78.4-----
2024-06-23 12:48 am-------29.75- 78.3-----
2024-06-23 12:42 am-------29.75- 78.4-----
2024-06-23 12:36 am-------29.76- 78.4-----
2024-06-23 12:30 am-------29.76- 78.6-----
2024-06-23 12:24 am-------29.76- 78.8-----
2024-06-23 12:18 am-------29.76-------
2024-06-23 12:12 am-------29.77-------
2024-06-23 12:06 am-------29.76-------
2024-06-23 12:00 am-------29.77-0.07 77.0-----
2024-06-22 11:54 pm-------29.77- 77.0-----
2024-06-22 11:48 pm-------29.77- 76.5-----
2024-06-22 11:42 pm-------29.78- 76.1-----
2024-06-22 11:36 pm-------29.78- 75.9-----
2024-06-22 11:30 pm-------29.78- 75.9-----
2024-06-22 11:24 pm-------29.78- 75.9-----
2024-06-22 11:18 pm-------29.78- 76.1-----
2024-06-22 11:12 pm-------29.78- 76.1-----
2024-06-22 11:06 pm-------29.79- 76.1-----
2024-06-22 11:00 pm-------29.79-0.06------
2024-06-22 10:54 pm-------29.79-------
2024-06-22 10:48 pm-------29.79-------
2024-06-22 10:42 pm-------29.80-------
2024-06-22 10:36 pm-------29.81-------
2024-06-22 10:30 pm-------29.80- 75.9-----
2024-06-22 10:24 pm-------29.80- 75.2-----
2024-06-22 10:18 pm-------29.80- 75.0-----
2024-06-22 10:12 pm-------29.81- 74.8-----
2024-06-22 10:06 pm-------29.81- 75.2-----
2024-06-22 10:00 pm-------29.82-0.04------
2024-06-22 09:54 pm-------29.82-------
2024-06-22 09:48 pm-------29.82- 75.6-----
2024-06-22 09:42 pm-------29.82- 75.6-----
2024-06-22 09:36 pm-------29.82- 75.6-----
2024-06-22 09:30 pm-------29.83-------
2024-06-22 09:24 pm-------29.83-------
2024-06-22 09:18 pm-------29.83- 75.0-----
2024-06-22 09:12 pm-------29.83- 74.8-----
2024-06-22 09:06 pm-------29.83- 75.0-----
2024-06-22 09:00 pm-------29.84-0.03 75.6-----
2024-06-22 08:54 pm-------29.84- 76.5-----
2024-06-22 08:48 pm-------29.84- 77.2-----
2024-06-22 08:42 pm-------29.85- 78.1-----
2024-06-22 08:36 pm-------29.85- 78.4-----
2024-06-22 08:30 pm-------29.85- 78.4-----
2024-06-22 08:24 pm-------29.85- 78.6-----
2024-06-22 08:18 pm-------29.85- 78.6-----
2024-06-22 08:12 pm-------29.85- 78.8-----
2024-06-22 08:06 pm-------29.85- 79.0-----
2024-06-22 08:00 pm-------29.85-0.04 79.0-----
2024-06-22 07:54 pm-------29.85- 79.0-----
2024-06-22 07:48 pm-------29.85- 79.2-----
2024-06-22 07:42 pm-------29.85- 79.2-----
2024-06-22 07:36 pm-------29.85- 79.7-----
2024-06-22 07:30 pm-------29.86- 79.5-----
2024-06-22 07:24 pm-------29.86- 79.7-----
2024-06-22 07:18 pm-------29.86- 79.5-----
2024-06-22 07:12 pm-------29.86- 79.7-----
2024-06-22 07:06 pm-------29.86- 79.3-----
2024-06-22 07:00 pm-------29.86-0.04------
2024-06-22 06:54 pm-------29.86-------
2024-06-22 06:48 pm-------29.86- 79.9-----
2024-06-22 06:42 pm-------29.86- 80.6-----
2024-06-22 06:36 pm-------29.86- 80.2-----
2024-06-22 06:30 pm-------29.87- 80.2-----
2024-06-22 06:24 pm-------29.87- 80.2-----
2024-06-22 06:18 pm-------29.87- 79.7-----
2024-06-22 06:12 pm-------29.87- 80.6-----
2024-06-22 06:06 pm-------29.87- 80.4-----
2024-06-22 06:00 pm-------29.87-0.05 80.6-----
2024-06-22 05:54 pm-------29.87- 81.0-----
2024-06-22 05:48 pm-------29.87- 81.0-----
2024-06-22 05:42 pm-------29.87- 81.0-----
2024-06-22 05:36 pm-------29.87- 81.3-----
2024-06-22 05:30 pm-------29.88-------
2024-06-22 05:24 pm-------29.88-------
2024-06-22 05:18 pm-------29.88- 81.7-----
2024-06-22 05:12 pm-------29.88- 82.0-----
2024-06-22 05:06 pm-------29.89- 81.5-----
2024-06-22 05:00 pm-------29.89-0.06 81.5-----
2024-06-22 04:54 pm-------29.89- 82.2-----
2024-06-22 04:48 pm-------29.89-------
2024-06-22 04:42 pm-------29.89-------
2024-06-22 04:36 pm-------29.89-------
2024-06-22 04:30 pm--------- 83.8-----
2024-06-22 04:24 pm--------- 84.6-----
2024-06-22 04:18 pm-------29.90-------
2024-06-22 04:12 pm-------29.90-------
2024-06-22 04:06 pm-------29.90-------
2024-06-22 04:00 pm-------29.90-0.07 83.7-----
2024-06-22 03:54 pm-------29.90- 82.4-----
2024-06-22 03:48 pm-------29.91- 84.4-----
2024-06-22 03:42 pm-------29.91- 84.4-----
2024-06-22 03:36 pm-------29.91- 85.1-----
2024-06-22 03:30 pm-------29.91- 84.4-----
2024-06-22 03:24 pm-------29.91- 83.7-----
2024-06-22 03:18 pm-------29.91- 84.2-----
2024-06-22 03:12 pm-------29.91- 84.7-----
2024-06-22 03:06 pm-------29.92- 83.3-----
2024-06-22 03:00 pm-------29.92-0.07 82.9-----
2024-06-22 02:54 pm-------29.92- 83.7-----
2024-06-22 02:48 pm-------29.93- 83.7-----
2024-06-22 02:42 pm-------29.93- 85.6-----
2024-06-22 02:36 pm-------29.93- 85.1-----
2024-06-22 02:30 pm-------29.93- 85.1-----
2024-06-22 02:24 pm-------29.93- 85.3-----
2024-06-22 02:18 pm-------29.94- 84.4-----
2024-06-22 02:12 pm-------29.94- 84.2-----
2024-06-22 02:06 pm-------29.94- 84.9-----
2024-06-22 02:00 pm-------29.95-0.06 84.9-----
2024-06-22 01:54 pm-------29.95- 84.0-----
2024-06-22 01:48 pm-------29.95- 83.7-----
2024-06-22 01:42 pm-------29.96- 83.8-----
2024-06-22 01:36 pm-------29.96- 83.5-----
2024-06-22 01:30 pm-------29.96- 83.8-----
2024-06-22 01:24 pm-------29.96- 83.7-----
2024-06-22 01:18 pm-------29.96- 84.4-----
2024-06-22 01:12 pm-------29.97- 84.0-----
2024-06-22 01:06 pm-------29.97- 82.6-----
2024-06-22 01:00 pm-------29.98-0.04 83.7-----
2024-06-22 12:54 pm-------29.98- 84.2-----
2024-06-22 12:48 pm-------29.98- 83.3-----
2024-06-22 12:42 pm-------29.98- 82.4-----
2024-06-22 12:36 pm-------29.98- 81.9-----
2024-06-22 12:30 pm-------29.98- 83.1-----
2024-06-22 12:24 pm-------29.98- 81.7-----
2024-06-22 12:18 pm-------29.99- 81.5-----
2024-06-22 12:12 pm-------29.99- 82.0-----
2024-06-22 12:06 pm-------29.99- 81.7-----
2024-06-22 12:00 pm-------29.99-0.04 81.7-----
2024-06-22 11:54 am-------30.00- 82.2-----
2024-06-22 11:48 am-------30.00-------
2024-06-22 11:42 am-------30.00-------
2024-06-22 11:36 am-------30.00-------
2024-06-22 11:30 am-------30.01- 80.6-----
2024-06-22 11:24 am-------30.01- 80.6-----
2024-06-22 11:18 am-------30.01- 79.9-----
2024-06-22 11:12 am-------30.01- 79.5-----
2024-06-22 11:06 am-------30.01- 79.3-----
2024-06-22 11:00 am-------30.01-0.03 79.3-----
2024-06-22 10:54 am-------30.02- 79.2-----
2024-06-22 10:48 am-------30.01- 79.5-----
2024-06-22 10:42 am-------30.02- 79.3-----
2024-06-22 10:36 am-------30.02- 79.0-----
2024-06-22 10:30 am-------30.02- 78.3-----
2024-06-22 10:24 am-------30.02- 78.4-----
2024-06-22 10:18 am--------- 78.1-----
2024-06-22 10:12 am--------- 78.1-----
2024-06-22 10:06 am--------- 76.5-----
2024-06-22 10:00 am-------30.02-0.02------
2024-06-22 09:54 am-------30.02-------
2024-06-22 09:48 am-------30.02- 76.5-----
2024-06-22 09:42 am-------30.02- 76.8-----
2024-06-22 09:36 am-------30.03- 76.6-----
2024-06-22 09:30 am-------30.03- 75.9-----
2024-06-22 09:24 am-------30.03- 75.2-----
2024-06-22 09:18 am-------30.03- 74.7-----
2024-06-22 09:12 am-------30.03- 73.8-----
2024-06-22 09:06 am-------30.03- 73.4-----
2024-06-22 09:00 am-------30.03-0.01 72.9-----
2024-06-22 08:54 am-------30.03- 72.0-----
2024-06-22 08:48 am-------30.04-------
2024-06-22 08:42 am-------30.03-------
2024-06-22 08:36 am-------30.03-------
2024-06-22 08:30 am-------30.03-------
2024-06-22 08:24 am-------30.03-------
2024-06-22 08:18 am-------30.03- 71.6-----
2024-06-22 08:12 am-------30.04- 70.7-----
2024-06-22 08:06 am-------30.04- 70.7-----
2024-06-22 08:00 am-------30.04+0.00------
2024-06-22 07:54 am-------30.04-------
2024-06-22 07:48 am-------30.04- 70.3-----
2024-06-22 07:42 am-------30.04- 69.8-----
2024-06-22 07:36 am-------30.04- 70.0-----
2024-06-22 07:30 am-------30.04- 70.0-----
2024-06-22 07:24 am-------30.04- 69.8-----
2024-06-22 07:18 am-------30.04-------
2024-06-22 07:12 am-------30.04-------
2024-06-22 07:06 am-------30.04-------
2024-06-22 07:00 am-------30.04-0.01 70.2-----
2024-06-22 06:54 am-------30.04- 70.0-----